Location: Béaulencourt
(50.0796°N, 2.8795°E)
Time: 19:58:00
(UTC+00:00)

Cosmos 2366 rocket - Pass Details

Date: 20 January 2026
Orbit: 955 x 995 km, 82.9° (Epoch: 15 February)

Event Time Altitude Azimuth Distance (km) Brightness Sun altitude
Rises 06:43:48 0° 205° (SSW) 3,646 7.0 -8.5°
Reaches altitude 10° 06:46:22 10° 211° (SSW) 2,709 6.2 -8.1°
Maximum altitude 06:52:23 51° 286° (WNW) 1,221 4.2 -7.2°
Drops below altitude 10° 06:58:31 10° 2° (N) 2,754 6.2 -6.3°
Sets 07:01:09 0° 7° (N) 3,712 6.9 -5.9°
